When you browse on this site, cookies collect data to enhance your experience and personalize the content and advertising you see.
Visit our Privacy Policy to learn more. By continuing to use the site, you agree to this use of cookies and data.

Météo par heure à Albany

Ce jour, 13 Juillet, Lundi

Heure Température Précipitation Vent Pression Humidité
00:00 +11°C° 0.7 mm 6 m/s 755 mmHg 66%
01:00 +11°C° 0.7 mm 7 m/s 754 mmHg 78%
02:00 +11°C° 0 mm 6 m/s 754 mmHg 91%
03:00 +11°C° 0 mm 6 m/s 754 mmHg 91%
04:00 +11°C° 0 mm 6 m/s 754 mmHg 92%
05:00 +12°C° 0 mm 5 m/s 754 mmHg 93%
06:00 +12°C° 0 mm 5 m/s 754 mmHg 93%
07:00 +10°C° 0 mm 5 m/s 755 mmHg 93%
08:00 +10°C° 0 mm 5 m/s 755 mmHg 94%
09:00 +13°C° 0 mm 5 m/s 755 mmHg 87%
10:00 +15°C° 0 mm 6 m/s 755 mmHg 80%
11:00 +16°C° 0 mm 6 m/s 755 mmHg 74%
12:00 +17°C° 0 mm 6 m/s 754 mmHg 68%
13:00 +19°C° 0 mm 6 m/s 753 mmHg 63%
14:00 +20°C° 0 mm 6 m/s 753 mmHg 57%
15:00 +19°C° 0 mm 6 m/s 753 mmHg 61%
16:00 +17°C° 0 mm 6 m/s 753 mmHg 64%
17:00 +16°C° 0 mm 6 m/s 752 mmHg 67%
18:00 +15°C° 0 mm 6 m/s 752 mmHg 72%
19:00 +14°C° 0 mm 6 m/s 752 mmHg 76%
20:00 +13°C° 0 mm 6 m/s 752 mmHg 80%
21:00 +13°C° 0 mm 6 m/s 751 mmHg 81%
22:00 +14°C° 0 mm 6 m/s 750 mmHg 82%
23:00 +14°C° 0 mm 6 m/s 750 mmHg 83%

Demain, 14 Juillet, Mardi

Heure Température Précipitation Vent Pression Humidité
00:00 +14°C° 0.1 mm 7 m/s 749 mmHg 84%
01:00 +14°C° 0.1 mm 7 m/s 748 mmHg 84%
02:00 +15°C° 0.1 mm 8 m/s 748 mmHg 84%
03:00 +12°C° 1.3 mm 8 m/s 748 mmHg 86%
04:00 +11°C° 1.3 mm 8 m/s 748 mmHg 89%
05:00 +9°C° 1.3 mm 8 m/s 749 mmHg 91%
06:00 +9°C° 0.7 mm 8 m/s 750 mmHg 89%
07:00 +9°C° 0.7 mm 8 m/s 750 mmHg 87%
08:00 +9°C° 0.7 mm 8 m/s 751 mmHg 85%
09:00 +10°C° 0.4 mm 8 m/s 752 mmHg 80%
10:00 +11°C° 0.4 mm 8 m/s 753 mmHg 76%
11:00 +11°C° 0.4 mm 8 m/s 753 mmHg 71%
12:00 +12°C° 0.3 mm 8 m/s 754 mmHg 69%
13:00 +12°C° 0.3 mm 8 m/s 754 mmHg 67%
14:00 +12°C° 0.3 mm 8 m/s 754 mmHg 65%
15:00 +12°C° 0.2 mm 7 m/s 754 mmHg 68%
16:00 +11°C° 0.2 mm 6 m/s 755 mmHg 71%
17:00 +10°C° 0.2 mm 5 m/s 756 mmHg 73%
18:00 +10°C° 0.1 mm 5 m/s 756 mmHg 76%
19:00 +9°C° 0.1 mm 5 m/s 756 mmHg 79%
20:00 +8°C° 0.1 mm 5 m/s 757 mmHg 81%
21:00 +8°C° 0 mm 5 m/s 757 mmHg 80%
22:00 +8°C° 0 mm 5 m/s 757 mmHg 79%
23:00 +8°C° 0 mm 5 m/s 757 mmHg 78%

Après-demain, 15 Juillet, Mercredi

Heure Température Précipitation Vent Pression Humidité
00:00 +8°C° 0 mm 5 m/s 757 mmHg 78%
01:00 +8°C° 0 mm 5 m/s 757 mmHg 77%
02:00 +8°C° 0 mm 5 m/s 757 mmHg 77%
03:00 +8°C° 0 mm 5 m/s 757 mmHg 76%
04:00 +8°C° 0 mm 5 m/s 757 mmHg 76%
05:00 +9°C° 0 mm 5 m/s 757 mmHg 75%
06:00 +9°C° 0 mm 5 m/s 757 mmHg 78%
07:00 +9°C° 0 mm 6 m/s 757 mmHg 81%
08:00 +9°C° 0 mm 6 m/s 757 mmHg 84%
09:00 +11°C° 0 mm 6 m/s 757 mmHg 77%
10:00 +13°C° 0 mm 6 m/s 757 mmHg 70%
11:00 +15°C° 0 mm 7 m/s 757 mmHg 62%
12:00 +15°C° 0 mm 7 m/s 757 mmHg 63%
13:00 +15°C° 0 mm 6 m/s 756 mmHg 63%
14:00 +15°C° 0 mm 6 m/s 755 mmHg 63%
15:00 +15°C° 0 mm 6 m/s 755 mmHg 66%
16:00 +14°C° 0 mm 6 m/s 756 mmHg 70%
17:00 +14°C° 0 mm 6 m/s 756 mmHg 73%
18:00 +13°C° 0 mm 6 m/s 756 mmHg 75%
19:00 +13°C° 0 mm 6 m/s 756 mmHg 77%
20:00 +13°C° 0 mm 5 m/s 756 mmHg 79%
21:00 +13°C° 0 mm 5 m/s 756 mmHg 80%
22:00 +13°C° 0 mm 6 m/s 756 mmHg 82%
23:00 +13°C° 0 mm 6 m/s 755 mmHg 83%

16 Juillet, Jeudi

Heure Température Précipitation Vent Pression Humidité
00:00 +13°C° 0 mm 6 m/s 755 mmHg 84%
01:00 +13°C° 0 mm 6 m/s 754 mmHg 84%
02:00 +13°C° 0 mm 6 m/s 754 mmHg 85%
03:00 +12°C° 0 mm 7 m/s 754 mmHg 85%
04:00 +12°C° 0 mm 7 m/s 753 mmHg 85%
05:00 +11°C° 0 mm 7 m/s 753 mmHg 85%
06:00 +12°C° 0 mm 7 m/s 753 mmHg 84%
07:00 +12°C° 0 mm 7 m/s 752 mmHg 84%
08:00 +12°C° 0 mm 8 m/s 752 mmHg 83%
09:00 +13°C° 0 mm 8 m/s 752 mmHg 78%
10:00 +16°C° 0 mm 8 m/s 752 mmHg 73%
11:00 +17°C° 0 mm 9 m/s 752 mmHg 68%
12:00 +17°C° 0.3 mm 9 m/s 752 mmHg 70%
13:00 +17°C° 0.3 mm 9 m/s 751 mmHg 72%
14:00 +17°C° 0.3 mm 9 m/s 751 mmHg 74%
15:00 +16°C° 1 mm 7 m/s 751 mmHg 80%
16:00 +14°C° 1 mm 6 m/s 751 mmHg 87%
17:00 +13°C° 1 mm 4 m/s 752 mmHg 93%
18:00 +13°C° 0.5 mm 4 m/s 752 mmHg 93%
19:00 +12°C° 0.5 mm 4 m/s 752 mmHg 92%
20:00 +12°C° 0.5 mm 4 m/s 752 mmHg 92%
21:00 +11°C° 0.2 mm 4 m/s 752 mmHg 92%
22:00 +11°C° 0.2 mm 3 m/s 752 mmHg 92%
23:00 +11°C° 0.2 mm 3 m/s 752 mmHg 93%

17 Juillet, Vendredi

Heure Température Précipitation Vent Pression Humidité
00:00 +10°C° 0.1 mm 3 m/s 752 mmHg 92%
01:00 +10°C° 0.1 mm 4 m/s 752 mmHg 92%
02:00 +10°C° 0.1 mm 4 m/s 752 mmHg 92%
03:00 +10°C° 0.4 mm 4 m/s 752 mmHg 91%
04:00 +10°C° 0.4 mm 4 m/s 752 mmHg 91%
05:00 +10°C° 0.4 mm 3 m/s 752 mmHg 90%
06:00 +10°C° 0.4 mm 4 m/s 753 mmHg 89%
07:00 +9°C° 0.4 mm 5 m/s 753 mmHg 88%
08:00 +9°C° 0.4 mm 5 m/s 754 mmHg 87%
09:00 +10°C° 0.4 mm 6 m/s 754 mmHg 84%
10:00 +10°C° 0.4 mm 6 m/s 755 mmHg 80%
11:00 +11°C° 0.4 mm 6 m/s 755 mmHg 77%
12:00 +11°C° 0.1 mm 6 m/s 755 mmHg 73%
13:00 +11°C° 0.1 mm 6 m/s 755 mmHg 69%
14:00 +11°C° 0.1 mm 6 m/s 755 mmHg 64%
15:00 +12°C° 0.1 mm 5 m/s 755 mmHg 66%
16:00 +10°C° 0.1 mm 5 m/s 756 mmHg 67%
17:00 +11°C° 0.1 mm 4 m/s 756 mmHg 68%
18:00 +10°C° 0.3 mm 4 m/s 757 mmHg 73%
19:00 +9°C° 0.3 mm 5 m/s 757 mmHg 79%
20:00 +9°C° 0.3 mm 5 m/s 758 mmHg 84%
21:00 +8°C° 0.1 mm 4 m/s 758 mmHg 84%
22:00 +8°C° 0.1 mm 4 m/s 758 mmHg 85%
23:00 +8°C° 0.1 mm 4 m/s 759 mmHg 85%

18 Juillet, Samedi

Heure Température Précipitation Vent Pression Humidité
00:00 +8°C° 0.1 mm 4 m/s 759 mmHg 86%
01:00 +7°C° 0.1 mm 4 m/s 759 mmHg 87%
02:00 +7°C° 0.1 mm 4 m/s 759 mmHg 88%
03:00 +7°C° 0.2 mm 4 m/s 758 mmHg 88%
04:00 +8°C° 0.2 mm 5 m/s 758 mmHg 88%
05:00 +8°C° 0.2 mm 5 m/s 758 mmHg 88%
06:00 +8°C° 0.2 mm 5 m/s 759 mmHg 89%
07:00 +8°C° 0.2 mm 5 m/s 759 mmHg 90%
08:00 +8°C° 0.2 mm 6 m/s 760 mmHg 91%
09:00 +10°C° 0.2 mm 6 m/s 760 mmHg 87%
10:00 +11°C° 0.2 mm 6 m/s 760 mmHg 82%
11:00 +14°C° 0.2 mm 6 m/s 760 mmHg 77%
12:00 +14°C° 0.2 mm 7 m/s 760 mmHg 75%
13:00 +15°C° 0.2 mm 7 m/s 760 mmHg 73%
14:00 +15°C° 0.2 mm 8 m/s 759 mmHg 71%
15:00 +13°C° 0.2 mm 8 m/s 760 mmHg 75%
16:00 +13°C° 0.2 mm 8 m/s 760 mmHg 78%
17:00 +12°C° 0.2 mm 8 m/s 760 mmHg 82%
18:00 +12°C° 0 mm 7 m/s 761 mmHg 81%
19:00 +11°C° 0 mm 7 m/s 762 mmHg 80%
20:00 +11°C° 0 mm 6 m/s 762 mmHg 78%
21:00 +10°C° 0.1 mm 6 m/s 763 mmHg 79%
22:00 +10°C° 0.1 mm 5 m/s 763 mmHg 80%
23:00 +10°C° 0.1 mm 5 m/s 763 mmHg 81%
Voir plus